This is the latest recevied weather packets stored in our database for station/object VE6EN. If no packets are shown the sender has not sent any weather packets the latest 10 day(s).
| Time | Temp. | Humidity | Pressure | Rain* | Wind** | Luminosity | Snow |
|---|---|---|---|---|---|---|---|
| 1777589999 | 20° C | 19% | 1015.7 hPa | 0 mm | - | - | - |
| 1777589399 | 20° C | 21% | 1015.8 hPa | 0 mm | - | - | - |
| 1777588799 | 20° C | 21% | 1015.9 hPa | 0 mm | - | - | - |
| 1777588200 | 19.44° C | 21% | 1016 hPa | 0 mm | - | - | - |
| 1777587600 | 19.44° C | 20% | 1016.2 hPa | 0 mm | - | - | - |
| 1777586999 | 19.44° C | 21% | 1016.1 hPa | 0 mm | - | - | - |
| 1777586402 | 19.44° C | 21% | 1016.2 hPa | 0 mm | - | - | - |
| 1777585804 | 19.44° C | 20% | 1016.4 hPa | 0 mm | - | - | - |
| 1777585201 | 18.89° C | 21% | 1016.5 hPa | 0 mm | - | - | - |
| 1777584600 | 18.89° C | 20% | 1016.5 hPa | 0 mm | - | - | - |
| 1777584004 | 18.33° C | 20% | 1016.7 hPa | 0 mm | - | - | - |
| 1777583400 | 18.89° C | 21% | 1016.7 hPa | 0 mm | - | - | - |
| 1777582800 | 18.89° C | 21% | 1016.8 hPa | 0 mm | - | - | - |
| 1777582199 | 19.44° C | 21% | 1016.9 hPa | 0 mm | - | - | - |
| 1777581599 | 19.44° C | 22% | 1017 hPa | 0 mm | - | - | - |
| 1777580999 | 18.89° C | 21% | 1017.1 hPa | 0 mm | - | - | - |
| 1777580404 | 18.33° C | 22% | 1017.2 hPa | 0 mm | - | - | - |
| 1777579802 | 18.33° C | 23% | 1017.3 hPa | 0 mm | - | - | - |
| 1777579200 | 18.33° C | 21% | 1017.4 hPa | 0 mm | - | - | - |
| 1777578599 | 17.78° C | 21% | 1017.5 hPa | 0 mm | - | - | - |
| 1777578004 | 17.78° C | 21% | 1017.6 hPa | 0 mm | - | - | - |
| 1777577399 | 17.78° C | 22% | 1017.7 hPa | 0 mm | - | - | - |
| 1777576799 | 17.78° C | 23% | 1017.8 hPa | 0 mm | - | - | - |
| 1777576204 | 17.78° C | 21% | 1017.9 hPa | 0 mm | - | - | - |
| 1777575602 | 17.78° C | 23% | 1018 hPa | 0 mm | - | - | - |
* Rain latest hour (hover to see other rain measurements)
** Current wind speed in m/s (hover to see current wind gust speed)